DW5444 Weather Reports


time (UTC)temp
C
wind
direction
speed
KPH
gust
KPH
rain 1hr
cm
rain 24hr
cm
rain mn
cm
humidity
%
barometer
mb
20260506204521 22 261 25.7 32.2 0.00 0.00 0.00 49 1012.7
20260506203020 22 253 19.3 37.0 0.00 0.00 0.00 52 1012.7
20260506201519 22 264 20.9 37.0 0.00 0.00 0.00 49 1012.7
20260506200033 22 259 17.7 32.2 0.00 0.00 0.00 47 1012.7
20260506194517 22 264 14.5 25.7 0.00 0.00 0.00 46 1012.6
20260506193013 22 249 11.3 20.9 0.00 0.00 0.00 50 1012.8
20260506191510 21 241 9.7 25.7 0.00 0.00 0.00 50 1013.2
20260506190007 21 234 9.7 24.1 0.00 0.00 0.00 49 1013.5
20260506184506 20 266 16.1 29.0 0.00 0.00 0.00 50 1013.7
20260506183005 20 270 20.9 29.0 0.00 0.00 0.00 51 1013.7
20260506181557 18 241 14.5 24.1 0.00 0.00 0.00 58 1013.8
20260506180057 18 284 16.1 24.1 0.00 0.00 0.00 60 1014.0
20260506174555 18 281 16.1 29.0 0.00 0.00 0.00 62 1013.9
20260506173108 18 270 17.7 25.7 0.00 0.00 0.00 57 1013.7
20260506171557 18 269 12.9 22.5 0.00 0.00 0.00 62 1013.9
20260506170100 18 254 14.5 22.5 0.00 0.00 0.00 60 1013.8
20260506164609 18 246 14.5 20.9 0.00 0.00 0.00 59 1013.7
20260506163047 17 263 8.0 17.7 0.00 0.00 0.00 63 1013.6
20260506161548 17 261 11.3 20.9 0.00 0.00 0.00 61 1013.8
20260506160050 17 267 12.9 19.3 0.00 0.00 0.00 59 1013.8
20260506154550 16 223 8.0 17.7 0.00 0.00 0.00 64 1013.8
20260506153039 16 241 8.0 16.1 0.00 0.00 0.00 67 1014.0
20260506151539 16 236 11.3 16.1 0.00 0.00 0.00 61 1014.0
20260506150037 16 249 9.7 17.7 0.00 0.00 0.00 61 1014.0
20260506144533 16 244 8.0 17.7 0.00 0.00 0.00 62 1013.9
20260506143035 15 253 6.4 12.9 0.00 0.00 0.00 62 1013.8
20260506141528 15 238 6.4 9.7 0.00 0.00 0.00 61 1013.7
20260506140027 15 244 8.0 12.9 0.00 0.00 0.00 60 1013.6
20260506134523 15 213 4.8 9.7 0.00 0.00 0.00 61 1013.4
20260506133019 14 218 3.2 8.0 0.00 0.00 0.00 63 1013.2
20260506131518 12 157 3.2 6.4 0.00 0.00 0.00 68 1013.1
20260506130017 12 160 3.2 6.4 0.00 0.00 0.00 67 1013.0
20260506124514 12 114 3.2 6.4 0.00 0.00 0.00 66 1012.9
20260506123016 12 180 4.8 12.9 0.00 0.00 0.00 66 1012.8
20260506121515 12 164 3.2 8.0 0.00 0.00 0.00 66 1012.7
20260506120010 12 174 4.8 9.7 0.00 0.00 0.00 65 1012.6
20260506114510 12 204 3.2 8.0 0.00 0.00 0.00 64 1012.5
20260506113009 13 180 4.8 11.3 0.00 0.00 0.00 63 1012.4
20260506111505 13 223 6.4 12.9 0.00 0.00 0.00 62 1012.4
20260506110005 13 198 3.2 8.0 0.00 0.00 0.00 61 1012.3
20260506104504 13 192 4.8 9.7 0.00 0.00 0.00 60 1012.2
20260506103004 13 149 3.2 6.4 0.00 0.00 0.00 61 1012.0
20260506101502 13 142 4.8 8.0 0.00 0.00 0.00 60 1012.0
20260506100100 13 173 3.2 11.3 0.00 0.00 0.00 58 1012.0
20260506094600 13 173 4.8 9.7 0.00 0.00 0.00 58 1012.0
20260506093058 13 135 4.8 8.0 0.00 0.00 0.00 58 1011.8
20260506091558 13 132 4.8 9.7 0.00 0.00 0.00 58 1011.9
20260506090056 13 130 8.0 9.7 0.00 0.00 0.00 58 1011.8
20260506084556 13 109 6.4 9.7 0.00 0.00 0.00 59 1011.8
20260506083055 13 105 6.4 9.7 0.00 0.00 0.00 59 1011.8
20260506081555 13 156 6.4 11.3 0.00 0.00 0.00 61 1011.8
20260506073053 12 137 0.0 4.8 0.00 0.00 0.00 64 1011.7
20260506071550 13 123 0.0 3.2 0.00 0.00 0.00 59 1011.7
20260506061537 13 82 1.6 8.0 0.00 0.00 0.00 59 1011.0
20260506044537 12 58 3.2 4.8 0.00 0.00 0.00 66 1010.7
20260506043029 12 69 3.2 4.8 0.00 0.00 0.00 68 1010.7
20260506041527 11 81 4.8 6.4 0.00 0.00 0.00 70 1010.6
20260506040026 11 80 6.4 6.4 0.00 0.00 0.00 70 1010.5
20260506034526 12 78 6.4 6.4 0.00 0.00 0.00 69 1010.3
20260506033025 12 76 4.8 6.4 0.00 0.00 0.00 72 1010.2
20260506031525 12 78 4.8 6.4 0.00 0.00 0.00 71 1009.9
20260506030023 16 72 3.2 3.2 0.00 0.00 0.00 61 1009.8
20260506024531 19 105 1.6 3.2 0.00 0.00 0.00 51 1009.7
20260506023022 22 294 0.0 1.6 0.00 0.00 0.00 42 1009.6
20260506021521 22 291 0.0 1.6 0.00 0.00 0.00 38 1009.6
20260506020021 22 31 0.0 6.4 0.00 0.00 0.00 38 1009.5
20260506014520 22 292 1.6 4.8 0.00 0.00 0.00 36 1009.5
20260506013023 23 318 3.2 6.4 0.00 0.00 0.00 33 1009.4
20260506011522 23 284 4.8 8.0 0.00 0.00 0.00 33 1009.5
20260506010019 23 45 3.2 11.3 0.00 0.00 0.00 32 1009.5
20260506004518 23 49 3.2 9.7 0.00 0.00 0.00 31 1009.5
20260506003017 23 298 1.6 12.9 0.00 0.00 0.00 33 1009.4
20260506001516 23 306 4.8 14.5 0.00 0.00 0.00 32 1009.5
20260506000015 23 348 3.2 8.0 0.00 0.00 0.00 35 1009.5
20260505234532 23 40 6.4 20.9 0.00 0.00 0.00 30 1009.6
20260505233016 23 297 4.8 16.1 0.00 0.00 0.00 34 1009.6
20260505231514 23 319 4.8 17.7 0.00 0.00 0.00 36 1009.7
20260505230013 23 45 8.0 16.1 0.00 0.00 0.00 34 1009.9
20260505224509 23 319 6.4 12.9 0.00 0.00 0.00 39 1009.8
20260505223011 22 31 6.4 19.3 0.00 0.00 0.00 38 1009.9
20260505221508 23 43 3.2 11.3 0.00 0.00 0.00 40 1009.9
20260505220010 23 24 9.7 19.3 0.00 0.00 0.00 40 1010.0
20260505214508 22 277 6.4 19.3 0.00 0.00 0.00 43 1010.0
20260505213004 22 21 9.7 17.7 0.00 0.00 0.00 43 1010.1
20260505211503 22 313 9.7 19.3 0.00 0.00 0.00 39 1010.1
20260505210004 22 5 6.4 19.3 0.00 0.00 0.00 43 1010.2